This is the latest recevied weather packets stored in our database for station/object KC0UFP. If no packets are shown the sender has not sent any weather packets the latest 10 day(s).
| Time | Temp. | Humidity | Pressure | Rain* | Wind** | Luminosity | Snow |
|---|---|---|---|---|---|---|---|
| 1778109619 | 13.89° C | 72% | 1014.6 hPa | 0 mm | - | 74 W/m² | - |
| 1778109317 | 13.89° C | 73% | 1014.7 hPa | 0 mm | - | 66 W/m² | - |
| 1778109015 | 13.89° C | 72% | 1014.4 hPa | 0 mm | - | 63 W/m² | - |
| 1778108711 | 13.89° C | 73% | 1014.4 hPa | 0 mm | - | 63 W/m² | - |
| 1778108409 | 13.89° C | 72% | 1014.3 hPa | 0 mm | - | 61 W/m² | - |
| 1778108105 | 13.89° C | 72% | 1014.2 hPa | 0 mm | - | 74 W/m² | - |
| 1778107801 | 13.89° C | 72% | 1014.1 hPa | 0 mm | - | 77 W/m² | - |
| 1778107498 | 13.89° C | 72% | 1014 hPa | 0 mm | - | 59 W/m² | - |
| 1778107195 | 13.89° C | 72% | 1013.7 hPa | 0 mm | - | 98 W/m² | - |
| 1778106890 | 13.89° C | 71% | 1013.7 hPa | 0 mm | - | 87 W/m² | - |
| 1778106588 | 13.89° C | 72% | 1013.9 hPa | 0 mm | - | 115 W/m² | - |
| 1778106285 | 13.89° C | 73% | 1013.6 hPa | 0 mm | - | 112 W/m² | - |
| 1778105981 | 13.89° C | 72% | 1013.3 hPa | 0 mm | - | 73 W/m² | - |
| 1778105678 | 13.89° C | 73% | 1013.3 hPa | 0 mm | - | 87 W/m² | - |
| 1778105376 | 13.89° C | 73% | 1012.9 hPa | 0 mm | - | 110 W/m² | - |
| 1778105072 | 13.89° C | 73% | 1013.4 hPa | 0 mm | - | 92 W/m² | - |
| 1778104768 | 13.89° C | 75% | 1013.8 hPa | 0 mm | - | 126 W/m² | - |
| 1778104464 | 13.89° C | 76% | 1014 hPa | 0 mm | - | 116 W/m² | - |
| 1778104160 | 13.89° C | 76% | 1014.3 hPa | 0 mm | - | 136 W/m² | - |
| 1778103857 | 13.89° C | 75% | 1014.4 hPa | 0 mm | - | 108 W/m² | - |
| 1778103555 | 13.89° C | 76% | 1014.5 hPa | 0 mm | - | 170 W/m² | - |
| 1778103253 | 13.89° C | 77% | 1014.8 hPa | 0 mm | - | 198 W/m² | - |
| 1778102950 | 13.33° C | 76% | 1014.8 hPa | 0 mm | - | 158 W/m² | - |
| 1778102646 | 13.33° C | 75% | 1014.5 hPa | 0 mm | - | 107 W/m² | - |
| 1778102340 | 13.33° C | 75% | 1015 hPa | 0 mm | - | 119 W/m² | - |
* Rain latest hour (hover to see other rain measurements)
** Current wind speed in m/s (hover to see current wind gust speed)